Location: Carbonear
(47.7333°N, 53.2500°W)
Time: 08:36:48
(UTC+00:00)

AO-85 - Visible Passes

Search period start: 27 November 2022 00:00
Search period end: 07 December 2022 00:00
Orbit: 513 x 757 km, 64.8° (Epoch: 24 November)

Date Brightness Start Highest point End Pass type
(mag) Time Alt. Az. Time Alt. Az. Time Alt. Az.
27 Nov ? 21:28:10 10° WSW 21:32:38 42° NW 21:35:36 18° NNE visible
27 Nov ? 23:12:04 10° NW 23:13:04 12° NW 23:13:04 12° NW visible
28 Nov ? 20:10:00 10° SSW 20:14:45 66° SE 20:19:08 10° NE visible
28 Nov ? 21:51:33 10° W 21:55:19 24° NW 21:57:32 17° N visible
29 Nov ? 20:32:28 10° SW 20:37:10 62° NW 20:41:31 10° NNE visible
29 Nov ? 22:15:28 10° WNW 22:18:10 15° NNW 22:19:26 14° N visible
30 Nov ? 20:55:31 10° WSW 20:59:43 33° NW 21:03:42 10° NNE visible
30 Nov ? 22:40:09 10° NW 22:41:11 11° NNW 22:41:18 11° NNW visible
01 Dec ? 21:19:05 10° W 21:22:28 20° NW 21:25:41 10° NNE visible
02 Dec ? 21:43:14 10° NW 21:45:24 13° NNW 21:47:30 10° N visible
03 Dec ? 20:22:55 10° W 20:26:51 27° NW 20:30:33 10° NNE visible
04 Dec ? 20:46:42 10° WNW 20:49:40 17° NNW 20:52:30 10° N visible
05 Dec ? 21:11:09 10° NW 21:12:38 11° NNW 21:14:06 10° N visible
